| time (UTC) | temp F | wind direction | speed MPH | gust MPH | rain 1hr in | rain 24hr in | rain mn in | humidity % | barometer mb |
| 20260902053044 | 91 | 136 | 3.0 | 9.0 | 0.00 | 0.00 | 0.00 | 24 | 993.6 |
| 20260902051546 | 91 | 149 | 4.0 | 8.0 | 0.00 | 0.00 | 0.00 | 24 | 993.8 |
| 20260902050057 | 92 | 163 | 3.0 | 7.0 | 0.00 | 0.00 | 0.00 | 23 | 993.8 |
| 20260902044542 | 93 | 98 | 5.0 | 8.0 | 0.00 | 0.00 | 0.00 | 23 | 993.8 |
| 20260902043046 | 93 | 136 | 2.0 | 7.0 | 0.00 | 0.00 | 0.00 | 23 | 993.8 |
| 20260902041540 | 94 | 169 | 5.0 | 10.0 | 0.00 | 0.00 | 0.00 | 22 | 993.6 |
| 20260902040041 | 94 | 208 | 3.0 | 9.0 | 0.00 | 0.00 | 0.00 | 21 | 993.4 |
| 20260902034540 | 94 | 192 | 5.0 | 10.0 | 0.00 | 0.00 | 0.00 | 21 | 993.3 |
| 20260902033039 | 94 | 168 | 4.0 | 10.0 | 0.00 | 0.00 | 0.00 | 21 | 993.1 |
| 20260902031538 | 95 | 217 | 5.0 | 10.0 | 0.00 | 0.00 | 0.00 | 20 | 992.8 |
| 20260902030038 | 96 | 182 | 6.0 | 12.0 | 0.00 | 0.00 | 0.00 | 19 | 992.5 |
| 20260902024551 | 96 | 208 | 6.0 | 11.0 | 0.00 | 0.00 | 0.00 | 20 | 992.3 |
| 20260902023037 | 97 | 215 | 6.0 | 12.0 | 0.00 | 0.00 | 0.00 | 20 | 992.2 |
| 20260902021536 | 98 | 185 | 6.0 | 13.0 | 0.00 | 0.00 | 0.00 | 19 | 992.0 |
| 20260902020036 | 99 | 209 | 7.0 | 14.0 | 0.00 | 0.00 | 0.00 | 18 | 991.9 |
| 20260902014535 | 100 | 209 | 9.0 | 19.0 | 0.00 | 0.00 | 0.00 | 18 | 991.9 |
| 20260902013039 | 101 | 220 | 10.0 | 15.0 | 0.00 | 0.00 | 0.00 | 18 | 991.8 |
| 20260902011535 | 102 | 216 | 9.0 | 20.0 | 0.00 | 0.00 | 0.00 | 19 | 991.9 |
| 20260902010031 | 102 | 213 | 8.0 | 21.0 | 0.00 | 0.00 | 0.00 | 19 | 992.0 |
| 20260902004530 | 103 | 162 | 11.0 | 16.0 | 0.00 | 0.00 | 0.00 | 18 | 992.1 |
| 20260902003031 | 104 | 227 | 8.0 | 15.0 | 0.00 | 0.00 | 0.00 | 18 | 992.1 |
| 20260902001527 | 104 | 202 | 8.0 | 18.0 | 0.00 | 0.00 | 0.00 | 18 | 992.2 |
| 20260902000026 | 103 | 143 | 12.0 | 21.0 | 0.00 | 0.00 | 0.00 | 19 | 992.3 |
| 20260901234524 | 103 | 120 | 9.0 | 19.0 | 0.00 | 0.00 | 0.00 | 23 | 992.3 |
| 20260901233022 | 103 | 227 | 10.0 | 18.0 | 0.00 | 0.00 | 0.00 | 21 | 992.6 |
| 20260901231524 | 103 | 158 | 11.0 | 24.0 | 0.00 | 0.00 | 0.00 | 23 | 992.7 |
| 20260901230017 | 100 | 170 | 10.0 | 24.0 | 0.00 | 0.00 | 0.00 | 31 | 992.8 |
| 20260901224515 | 100 | 157 | 11.0 | 20.0 | 0.00 | 0.00 | 0.00 | 32 | 993.0 |
| 20260901223013 | 102 | 161 | 9.0 | 20.0 | 0.00 | 0.00 | 0.00 | 29 | 993.1 |
| 20260901221508 | 102 | 161 | 8.0 | 18.0 | 0.00 | 0.00 | 0.00 | 28 | 993.3 |
| 20260901220006 | 101 | 165 | 10.0 | 20.0 | 0.00 | 0.00 | 0.00 | 30 | 993.5 |
| 20260901214504 | 101 | 161 | 10.0 | 20.0 | 0.00 | 0.00 | 0.00 | 30 | 993.9 |
| 20260901213001 | 101 | 123 | 12.0 | 24.0 | 0.00 | 0.00 | 0.00 | 31 | 994.0 |
| 20260901211557 | 101 | 138 | 8.0 | 18.0 | 0.00 | 0.00 | 0.00 | 32 | 994.2 |
| 20260901210053 | 101 | 159 | 9.0 | 18.0 | 0.00 | 0.00 | 0.00 | 32 | 994.5 |
| 20260901204549 | 101 | 159 | 10.0 | 23.0 | 0.00 | 0.00 | 0.00 | 31 | 994.7 |
| 20260901203047 | 100 | 133 | 9.0 | 19.0 | 0.00 | 0.00 | 0.00 | 33 | 995.0 |
| 20260901201549 | 99 | 138 | 9.0 | 18.0 | 0.00 | 0.00 | 0.00 | 34 | 995.2 |
| 20260901200036 | 99 | 151 | 10.0 | 22.0 | 0.00 | 0.00 | 0.00 | 33 | 995.5 |
| 20260901194535 | 98 | 111 | 7.0 | 19.0 | 0.00 | 0.00 | 0.00 | 35 | 995.7 |
| 20260901193035 | 97 | 154 | 10.0 | 22.0 | 0.00 | 0.00 | 0.00 | 38 | 996.0 |
| 20260901191526 | 97 | 160 | 8.0 | 18.0 | 0.00 | 0.00 | 0.00 | 38 | 996.3 |
| 20260901190025 | 97 | 136 | 3.0 | 16.0 | 0.00 | 0.00 | 0.00 | 38 | 996.3 |
| 20260901184537 | 96 | 142 | 9.0 | 16.0 | 0.00 | 0.00 | 0.00 | 39 | 996.5 |
| 20260901183021 | 95 | 164 | 9.0 | 15.0 | 0.00 | 0.00 | 0.00 | 40 | 996.6 |
| 20260901181530 | 94 | 129 | 8.0 | 18.0 | 0.00 | 0.00 | 0.00 | 41 | 996.6 |
| 20260901180015 | 94 | 175 | 10.0 | 16.0 | 0.00 | 0.00 | 0.00 | 43 | 996.9 |
| 20260901174534 | 94 | 149 | 12.0 | 20.0 | 0.00 | 0.00 | 0.00 | 42 | 996.9 |
| 20260901173010 | 94 | 142 | 10.0 | 18.0 | 0.00 | 0.00 | 0.00 | 43 | 997.0 |
| 20260901171506 | 93 | 132 | 9.0 | 18.0 | 0.00 | 0.00 | 0.00 | 44 | 997.1 |
| 20260901170002 | 93 | 217 | 9.0 | 16.0 | 0.00 | 0.00 | 0.00 | 45 | 997.0 |
| 20260901164603 | 92 | 152 | 7.0 | 16.0 | 0.00 | 0.00 | 0.00 | 45 | 997.0 |
| 20260901163054 | 92 | 128 | 9.0 | 19.0 | 0.00 | 0.00 | 0.00 | 45 | 997.0 |
| 20260901161604 | 91 | 144 | 7.0 | 19.0 | 0.00 | 0.00 | 0.00 | 46 | 996.9 |
| 20260901160106 | 91 | 115 | 6.0 | 15.0 | 0.00 | 0.00 | 0.00 | 46 | 996.8 |
| 20260901154543 | 91 | 143 | 10.0 | 19.0 | 0.00 | 0.00 | 0.00 | 46 | 996.8 |
| 20260901153041 | 90 | 157 | 8.0 | 14.0 | 0.00 | 0.00 | 0.00 | 46 | 996.7 |
| 20260901151539 | 90 | 221 | 7.0 | 21.0 | 0.00 | 0.00 | 0.00 | 46 | 996.5 |
| 20260901150035 | 88 | 166 | 7.0 | 13.0 | 0.00 | 0.00 | 0.00 | 48 | 996.5 |
| 20260901144536 | 88 | 146 | 5.0 | 14.0 | 0.00 | 0.00 | 0.00 | 49 | 996.6 |
| 20260901143036 | 88 | 206 | 5.0 | 10.0 | 0.00 | 0.00 | 0.00 | 50 | 996.7 |
| 20260901141529 | 87 | 196 | 5.0 | 12.0 | 0.00 | 0.00 | 0.00 | 51 | 996.5 |
| 20260901140032 | 86 | 150 | 5.0 | 8.0 | 0.00 | 0.00 | 0.00 | 52 | 996.3 |
| 20260901134527 | 85 | 140 | 5.0 | 10.0 | 0.00 | 0.00 | 0.00 | 54 | 996.3 |
| 20260901133023 | 83 | 138 | 3.0 | 6.0 | 0.00 | 0.00 | 0.00 | 56 | 996.1 |
| 20260901131524 | 83 | 155 | 0.0 | 2.0 | 0.00 | 0.00 | 0.00 | 56 | 996.0 |
| 20260901130026 | 83 | 172 | 1.0 | 4.0 | 0.00 | 0.00 | 0.00 | 55 | 995.9 |
| 20260901124527 | 83 | 219 | 0.0 | 4.0 | 0.00 | 0.00 | 0.00 | 55 | 995.8 |
| 20260901123036 | 84 | 201 | 1.0 | 3.0 | 0.00 | 0.00 | 0.00 | 54 | 995.8 |
| 20260901121515 | 84 | 225 | 1.0 | 5.0 | 0.00 | 0.00 | 0.00 | 54 | 995.7 |
| 20260901120013 | 83 | 103 | 1.0 | 5.0 | 0.00 | 0.00 | 0.00 | 55 | 995.7 |
| 20260901114513 | 83 | 223 | 0.0 | 2.0 | 0.00 | 0.00 | 0.00 | 55 | 995.6 |
| 20260901113012 | 83 | 201 | 1.0 | 2.0 | 0.00 | 0.00 | 0.00 | 54 | 995.5 |
| 20260901111511 | 84 | 255 | 0.0 | 1.0 | 0.00 | 0.00 | 0.00 | 53 | 995.6 |
| 20260901110011 | 85 | 250 | 3.0 | 6.0 | 0.00 | 0.00 | 0.00 | 52 | 995.6 |
| 20260901104512 | 85 | 140 | 2.0 | 7.0 | 0.00 | 0.00 | 0.00 | 51 | 995.5 |
| 20260901103009 | 84 | 145 | 3.0 | 7.0 | 0.00 | 0.00 | 0.00 | 52 | 995.5 |
| 20260901101508 | 83 | 275 | 0.0 | 1.0 | 0.00 | 0.00 | 0.00 | 54 | 995.6 |
| 20260901100005 | 84 | 273 | 0.0 | 1.0 | 0.00 | 0.00 | 0.00 | 53 | 995.6 |
| 20260901094510 | 85 | 228 | 0.0 | 5.0 | 0.00 | 0.00 | 0.00 | 49 | 995.5 |
| 20260901093003 | 85 | 180 | 2.0 | 6.0 | 0.00 | 0.00 | 0.00 | 49 | 995.4 |
| 20260901091502 | 85 | 285 | 0.0 | 4.0 | 0.00 | 0.00 | 0.00 | 52 | 995.3 |
| 20260901084600 | 85 | 160 | 0.0 | 4.0 | 0.00 | 0.00 | 0.00 | 51 | 995.3 |
| 20260901083100 | 85 | 163 | 0.0 | 5.0 | 0.00 | 0.00 | 0.00 | 51 | 995.3 |
| 20260901081558 | 85 | 151 | 0.0 | 4.0 | 0.00 | 0.00 | 0.00 | 50 | 995.3 |
| 20260901080058 | 86 | 163 | 1.0 | 5.0 | 0.00 | 0.00 | 0.00 | 50 | 995.3 |
| 20260901074558 | 86 | 151 | 2.0 | 6.0 | 0.00 | 0.00 | 0.00 | 51 | 995.3 |
| 20260901073055 | 85 | 150 | 2.0 | 5.0 | 0.00 | 0.00 | 0.00 | 52 | 995.2 |
| 20260901071553 | 85 | 217 | 0.0 | 3.0 | 0.00 | 0.00 | 0.00 | 53 | 995.1 |
| 20260901070054 | 85 | 157 | 0.0 | 1.0 | 0.00 | 0.00 | 0.00 | 53 | 994.9 |
| 20260901064550 | 86 | 218 | 2.0 | 5.0 | 0.00 | 0.00 | 0.00 | 51 | 995.0 |
| 20260901063104 | 87 | 254 | 3.0 | 7.0 | 0.00 | 0.00 | 0.00 | 49 | 994.8 |
| 20260901061558 | 88 | 217 | 2.0 | 9.0 | 0.00 | 0.00 | 0.00 | 47 | 994.7 |
| 20260901060057 | 88 | 161 | 6.0 | 12.0 | 0.00 | 0.00 | 0.00 | 46 | 994.5 |
| 20260901054548 | 89 | 149 | 5.0 | 11.0 | 0.00 | 0.00 | 0.00 | 44 | 994.6 |